Portada
METAR-TAF:

METAR-TAF

Aeropuertos :

Laurel, Misisipi, Estados Unidos

latitud: 31-40-23N, longitud: 089-10-22W, altitud: 73 m

Observación

El informe se hizo hace 16 minutos, a las 00:55 UTC
Viento 3 kt del sur
Temperatura 24°C
Humedad 89%
Presión 1019 hPa
Visibilidad: 16.1 km
Nubes dispersas a una altura de 4700 ft
Nubes dispersas a una altura de 5000 ft

METAR: KLUL 030055Z AUTO 19003KT 10SM SCT047 SCT050 24/22 A3008 RMK A02 T02450217

Hora: 20:11 (01:11 UTC)


TAF: falta

Observaciones y pronósticos meteorológicos de más de 4000 aeropuertos (mensajes METAR y TAF).

Los puntos amarillos y rojos representan las estaciones disponibles.

Ponga el ratón en el punto deseado para ver el nombre de la estación.

Haga clic para ver las observaciones y los pronósticos meteorológicos.

Para cambiar el mapa : haga clic en los botones verdes con una cruz de color negro para hacer un zoom, en el botón verde con un guión para alejar o en las flechas verdes para mapas adyacentes.


METAR-TAF: